Location: Davayat
(45.9471°N, 3.1105°E)
Time: 18:12:39
(UTC+00:00)

Lacrosse 5 rocket - Pass Details

Date: 01 December 2020
Orbit: 461 x 635 km, 57.0° (Epoch: 17 January)

Event Time Altitude Azimuth Distance (km) Brightness Sun altitude
Rises 16:41:23 0° 236° (SW) 2,542 7.0 -6.5°
Reaches altitude 10° 16:43:34 10° 238° (WSW) 1,645 5.5 -6.9°
Maximum altitude 16:47:13 68° 322° (NW) 508 1.2 -7.5°
Drops below altitude 10° 16:50:49 10° 47° (NE) 1,615 3.1 -8.0°
Enters shadow 16:50:56 - 47° (NE) 1,664 3.2 -8.1°
